When you browse on this site, cookies collect data to enhance your experience and personalize the content and advertising you see.
Visit our Privacy Policy to learn more. By continuing to use the site, you agree to this use of cookies and data.
  • In Hungary
  • List of Countries
  • For 7 days
  • Water Temperature
  • Satellite Maps
  • Weather Map
  • News
  • Weather Widgets
  • user-avatar
    Login

    Hourly Weather Ponteareas

    Today, 18 November, Sunday

    Time Temperature Precipitation Wind Pressure Humidity
    00:00 +13°C° 0 mm 3 mps 738 mmHg 79%
    01:00 +13°C° 0 mm 3 mps 737 mmHg 80%
    02:00 +13°C° 0 mm 3 mps 737 mmHg 81%
    03:00 +13°C° 0.1 mm 3 mps 737 mmHg 82%
    04:00 +13°C° 0.1 mm 3 mps 737 mmHg 83%
    05:00 +13°C° 0.1 mm 3 mps 736 mmHg 84%
    06:00 +13°C° 0.1 mm 3 mps 736 mmHg 83%
    07:00 +14°C° 0.1 mm 2 mps 736 mmHg 83%
    08:00 +15°C° 0.1 mm 2 mps 736 mmHg 83%
    09:00 +16°C° 0 mm 2 mps 736 mmHg 78%
    10:00 +17°C° 0 mm 2 mps 736 mmHg 74%
    11:00 +18°C° 0 mm 2 mps 736 mmHg 70%
    12:00 +19°C° 0.4 mm 1 mps 736 mmHg 72%
    13:00 +19°C° 0.4 mm 1 mps 736 mmHg 75%
    14:00 +19°C° 0.4 mm 1 mps 735 mmHg 78%
    15:00 +18°C° 0.5 mm 1 mps 735 mmHg 82%
    16:00 +16°C° 0.5 mm 1 mps 735 mmHg 86%
    17:00 +14°C° 0.5 mm 1 mps 735 mmHg 90%
    18:00 +14°C° 0.4 mm 1 mps 735 mmHg 92%
    19:00 +14°C° 0.4 mm 1 mps 735 mmHg 93%
    20:00 +14°C° 0.4 mm 1 mps 735 mmHg 94%
    21:00 +14°C° 0.5 mm 1 mps 735 mmHg 95%
    22:00 +13°C° 0.5 mm 1 mps 735 mmHg 95%
    23:00 +13°C° 0.5 mm 1 mps 735 mmHg 96%

    Tomorrow, 19 November, Monday

    Time Temperature Precipitation Wind Pressure Humidity
    00:00 +13°C° 0.3 mm 1 mps 735 mmHg 96%
    01:00 +13°C° 0.3 mm 1 mps 735 mmHg 96%
    02:00 +13°C° 0.3 mm 1 mps 735 mmHg 96%
    03:00 +13°C° 0.3 mm 1 mps 735 mmHg 96%
    04:00 +12°C° 0.3 mm 1 mps 735 mmHg 96%
    05:00 +12°C° 0.3 mm 1 mps 735 mmHg 96%
    06:00 +12°C° 0.2 mm 1 mps 736 mmHg 94%
    07:00 +13°C° 0.2 mm 1 mps 736 mmHg 93%
    08:00 +13°C° 0.2 mm 1 mps 736 mmHg 92%
    09:00 +14°C° 0.1 mm 1 mps 736 mmHg 86%
    10:00 +16°C° 0.1 mm 1 mps 737 mmHg 81%
    11:00 +18°C° 0.1 mm 1 mps 737 mmHg 75%
    12:00 +16°C° 0.2 mm 1 mps 736 mmHg 77%
    13:00 +16°C° 0.2 mm 1 mps 736 mmHg 79%
    14:00 +16°C° 0.2 mm 1 mps 736 mmHg 81%
    15:00 +15°C° 0.3 mm 1 mps 736 mmHg 86%
    16:00 +14°C° 0.3 mm 1 mps 736 mmHg 90%
    17:00 +13°C° 0.3 mm 1 mps 736 mmHg 94%
    18:00 +13°C° 0.4 mm 1 mps 736 mmHg 95%
    19:00 +13°C° 0.4 mm 1 mps 736 mmHg 95%
    20:00 +13°C° 0.4 mm 1 mps 736 mmHg 96%
    21:00 +12°C° 0.6 mm 0 mps 735 mmHg 96%
    22:00 +12°C° 0.6 mm 0 mps 735 mmHg 96%
    23:00 +12°C° 0.6 mm 0 mps 735 mmHg 96%

    Day after tomorrow, 20 November, Tuesday

    Time Temperature Precipitation Wind Pressure Humidity
    00:00 +12°C° 1.2 mm 1 mps 735 mmHg 97%
    01:00 +12°C° 1.2 mm 1 mps 734 mmHg 97%
    02:00 +12°C° 1.2 mm 1 mps 734 mmHg 97%
    03:00 +12°C° 2.1 mm 1 mps 734 mmHg 97%
    04:00 +12°C° 2.1 mm 1 mps 733 mmHg 97%
    05:00 +12°C° 2.1 mm 1 mps 733 mmHg 97%
    06:00 +10°C° 0.7 mm 2 mps 733 mmHg 96%
    07:00 +10°C° 0.7 mm 3 mps 734 mmHg 95%
    08:00 +10°C° 0.7 mm 3 mps 734 mmHg 94%
    09:00 +10°C° 0.1 mm 3 mps 734 mmHg 91%
    10:00 +11°C° 0.1 mm 4 mps 734 mmHg 87%
    11:00 +11°C° 0.1 mm 4 mps 735 mmHg 83%
    12:00 +11°C° 0 mm 4 mps 735 mmHg 81%
    13:00 +10°C° 0 mm 4 mps 735 mmHg 78%
    14:00 +10°C° 0 mm 4 mps 735 mmHg 75%
    15:00 +8°C° 0 mm 4 mps 735 mmHg 78%
    16:00 +8°C° 0 mm 3 mps 736 mmHg 81%
    17:00 +7°C° 0 mm 3 mps 736 mmHg 84%
    18:00 +7°C° 0 mm 3 mps 737 mmHg 85%
    19:00 +7°C° 0 mm 2 mps 737 mmHg 86%
    20:00 +7°C° 0 mm 2 mps 738 mmHg 87%
    21:00 +7°C° 0 mm 1 mps 738 mmHg 89%
    22:00 +7°C° 0 mm 1 mps 738 mmHg 90%
    23:00 +5°C° 0 mm 0 mps 738 mmHg 92%

    21 November, Wednesday

    Time Temperature Precipitation Wind Pressure Humidity
    00:00 +6°C° 0 mm 1 mps 738 mmHg 92%
    01:00 +6°C° 0 mm 1 mps 738 mmHg 92%
    02:00 +5°C° 0 mm 1 mps 738 mmHg 93%
    03:00 +5°C° 0.1 mm 1 mps 738 mmHg 92%
    04:00 +4°C° 0.1 mm 2 mps 737 mmHg 92%
    05:00 +4°C° 0.1 mm 2 mps 737 mmHg 91%
    06:00 +5°C° 0.3 mm 2 mps 737 mmHg 90%
    07:00 +6°C° 0.3 mm 2 mps 738 mmHg 89%
    08:00 +7°C° 0.3 mm 3 mps 738 mmHg 88%
    09:00 +8°C° 0.4 mm 3 mps 738 mmHg 85%
    10:00 +8°C° 0.4 mm 4 mps 737 mmHg 82%
    11:00 +10°C° 0.4 mm 4 mps 737 mmHg 80%
    12:00 +10°C° 0.8 mm 4 mps 737 mmHg 81%
    13:00 +10°C° 0.8 mm 4 mps 737 mmHg 82%
    14:00 +10°C° 0.8 mm 4 mps 736 mmHg 83%
    15:00 +8°C° 0.7 mm 4 mps 736 mmHg 86%
    16:00 +7°C° 0.7 mm 4 mps 736 mmHg 89%
    17:00 +6°C° 0.7 mm 4 mps 736 mmHg 92%
    18:00 +6°C° 0.3 mm 4 mps 737 mmHg 93%
    19:00 +6°C° 0.3 mm 4 mps 737 mmHg 93%
    20:00 +5°C° 0.3 mm 4 mps 737 mmHg 94%
    21:00 +5°C° 0.6 mm 4 mps 737 mmHg 94%
    22:00 +6°C° 0.6 mm 4 mps 737 mmHg 94%
    23:00 +6°C° 0.6 mm 4 mps 737 mmHg 93%

    22 November, Thursday

    Time Temperature Precipitation Wind Pressure Humidity
    00:00 +7°C° 1 mm 3 mps 737 mmHg 94%
    01:00 +7°C° 1 mm 3 mps 737 mmHg 95%
    02:00 +8°C° 1 mm 2 mps 737 mmHg 95%
    03:00 +7°C° 0.4 mm 2 mps 737 mmHg 96%
    04:00 +7°C° 0.4 mm 2 mps 737 mmHg 96%
    05:00 +7°C° 0.4 mm 2 mps 737 mmHg 96%
    06:00 +8°C° 0.2 mm 2 mps 738 mmHg 95%
    07:00 +8°C° 0.2 mm 3 mps 738 mmHg 94%
    08:00 +8°C° 0.2 mm 3 mps 739 mmHg 93%
    09:00 +9°C° 0.4 mm 3 mps 739 mmHg 90%
    10:00 +9°C° 0.4 mm 3 mps 739 mmHg 86%
    11:00 +10°C° 0.4 mm 4 mps 739 mmHg 83%
    12:00 +10°C° 0.7 mm 3 mps 739 mmHg 84%
    13:00 +10°C° 0.7 mm 3 mps 739 mmHg 85%
    14:00 +9°C° 0.7 mm 3 mps 739 mmHg 87%
    15:00 +9°C° 0.3 mm 2 mps 740 mmHg 90%
    16:00 +8°C° 0.3 mm 2 mps 740 mmHg 93%
    17:00 +8°C° 0.3 mm 1 mps 741 mmHg 95%
    18:00 +8°C° 0.1 mm 1 mps 741 mmHg 96%
    19:00 +6°C° 0.1 mm 2 mps 742 mmHg 96%
    20:00 +6°C° 0.1 mm 2 mps 742 mmHg 97%
    21:00 +6°C° 0.1 mm 2 mps 742 mmHg 97%
    22:00 +6°C° 0.1 mm 2 mps 743 mmHg 97%
    23:00 +6°C° 0.1 mm 2 mps 743 mmHg 97%

    23 November, Friday

    Time Temperature Precipitation Wind Pressure Humidity
    00:00 +5°C° 0.1 mm 2 mps 743 mmHg 97%
    01:00 +4°C° 0.1 mm 3 mps 743 mmHg 97%
    02:00 +4°C° 0.1 mm 3 mps 743 mmHg 96%
    03:00 +5°C° 0.1 mm 3 mps 743 mmHg 96%
    04:00 +5°C° 0.1 mm 3 mps 743 mmHg 96%
    05:00 +5°C° 0.1 mm 3 mps 743 mmHg 95%
    06:00 +5°C° 0.1 mm 3 mps 744 mmHg 94%
    07:00 +7°C° 0.1 mm 3 mps 744 mmHg 93%
    08:00 +6°C° 0.1 mm 4 mps 744 mmHg 92%
    09:00 +8°C° 0.1 mm 4 mps 744 mmHg 86%
    10:00 +9°C° 0.1 mm 5 mps 744 mmHg 81%
    11:00 +10°C° 0.1 mm 5 mps 744 mmHg 76%
    12:00 +10°C° 0.3 mm 5 mps 744 mmHg 76%
    13:00 +10°C° 0.3 mm 5 mps 743 mmHg 77%
    14:00 +10°C° 0.3 mm 5 mps 743 mmHg 77%
    15:00 +10°C° 0.4 mm 4 mps 743 mmHg 82%
    16:00 +8°C° 0.4 mm 4 mps 743 mmHg 87%
    17:00 +8°C° 0.4 mm 3 mps 744 mmHg 91%
    18:00 +7°C° 0.3 mm 4 mps 744 mmHg 92%
    19:00 +6°C° 0.3 mm 4 mps 744 mmHg 93%
    20:00 +6°C° 0.3 mm 4 mps 744 mmHg 93%
    21:00 +6°C° 0.2 mm 4 mps 744 mmHg 93%
    22:00 +6°C° 0.2 mm 4 mps 744 mmHg 92%
    23:00 +6°C° 0.2 mm 4 mps 743 mmHg 92%
    Show more